Change the Weather History Date:

Friday, February 14, 2014

  Actual Average Record
Temperature  
Mean Temperature -1 °F -  
Max Temperature 12 °F 24 °F 44 °F (1999)
Min Temperature -14 °F 3 °F -16 °F (1990)
Degree Days  
Heating Degree Days 66    
Moisture  
Dew Point -8 °F    
Average Humidity 73    
Maximum Humidity 85    
Minimum Humidity 57    
Precipitation  
Precipitation 0.00 in - - ()
Sea Level Pressure  
Sea Level Pressure 29.86 in    
Wind  
Wind Speed 4 mph (NNW)    
Max Wind Speed 10 mph    
Max Gust Speed 16 mph    
Visibility 10 miles    
Events Snow    
Averages and records for this station are not official NWS values.
T = Trace of Precipitation, MM = Missing Value Source: NWS Daily Summary

Daily Weather History Graph

Daily Weather History Graph

Search for Another Location

Airport or City:

Trip Planner

Search our weather history database for the weather conditions in past years. The results will help you decide how hot, cold, wet, or windy it might be!

Date:

Astronomy

Feb. 14, 2014 Rise Set
Actual Time 7:16 AM CST 5:32 PM CST
Civil Twilight 6:45 AM CST 6:03 PM CST
Nautical Twilight 6:09 AM CST 6:39 PM CST
Astronomical Twilight 5:33 AM CST 7:15 PM CST
Moon 5:40 PM CST (2/14) 6:41 AM CST (2/14)
Length of Visible Light 11h 18m
Length of Day
10h 15m
Full, 100% of the Moon is Illuminated
Feb 14
Full
Feb 14
Full
Feb 22
Last Quarter
Mar 1
New
Mar 8
First Quarter

Hourly Weather History & Observations

Time (CST) Temp. Windchill Dew Point Humidity Pressure Visibility Wind Dir Wind Speed Gust Speed Precip Events Conditions
12:05 AM -0.4 °F -8.3 °F -5.8 °F 78% 29.70 in 10.0 mi NNW 3.5 mph - N/A   Clear
12:25 AM -0.4 °F - -5.8 °F 78% 29.71 in 10.0 mi Calm Calm - N/A   Clear
12:45 AM -2.2 °F - -7.6 °F 78% 29.71 in 10.0 mi Calm Calm - N/A   Clear
1:05 AM -2.2 °F -10.4 °F -7.6 °F 78% 29.71 in 10.0 mi NNW 3.5 mph - N/A   Clear
1:25 AM -2.2 °F -12.5 °F -7.6 °F 78% 29.71 in 10.0 mi North 4.6 mph - N/A   Clear
1:45 AM -4.0 °F -12.4 °F -7.6 °F 85% 29.71 in 10.0 mi North 3.5 mph - N/A   Clear
2:05 AM -4.0 °F -12.4 °F -7.6 °F 85% 29.72 in 10.0 mi North 3.5 mph - N/A   Clear
2:25 AM -4.0 °F -12.4 °F -7.6 °F 85% 29.73 in 10.0 mi North 3.5 mph - N/A   Clear
2:45 AM -4.0 °F -16.3 °F -9.4 °F 78% 29.73 in 10.0 mi NNE 5.8 mph - N/A   Clear
3:05 AM -4.0 °F -14.6 °F -7.6 °F 85% 29.73 in 10.0 mi NNE 4.6 mph - N/A   Clear
3:25 AM -4.0 °F -14.6 °F -7.6 °F 85% 29.73 in 10.0 mi North 4.6 mph - N/A   Clear
3:45 AM -4.0 °F -12.4 °F -9.4 °F 78% 29.74 in 10.0 mi North 3.5 mph - N/A   Clear
4:05 AM -4.0 °F -14.6 °F -9.4 °F 78% 29.75 in 10.0 mi North 4.6 mph - N/A   Clear
4:25 AM -4.0 °F -17.8 °F -9.4 °F 78% 29.76 in 10.0 mi North 6.9 mph - N/A   Clear
4:45 AM -4.0 °F -17.8 °F -11.2 °F 71% 29.77 in 10.0 mi NNW 6.9 mph - N/A   Clear
5:05 AM -5.8 °F -18.4 °F -11.2 °F 77% 29.78 in 10.0 mi NNW 5.8 mph - N/A   Clear
5:25 AM -7.6 °F - -13.0 °F 77% 29.78 in 10.0 mi Calm Calm - N/A   Clear
5:45 AM -5.8 °F - -11.2 °F 77% 29.80 in 10.0 mi Calm Calm - N/A   Clear
6:05 AM -7.6 °F - -13.0 °F 77% 29.80 in 10.0 mi Calm Calm - N/A   Clear
6:25 AM -5.8 °F - -13.0 °F 71% 29.80 in 10.0 mi Calm Calm - N/A   Clear
6:45 AM -7.6 °F - -13.0 °F 77% 29.81 in 10.0 mi Calm Calm - N/A   Clear
7:05 AM -7.6 °F - -13.0 °F 77% 29.82 in 10.0 mi Calm Calm - N/A   Clear
7:25 AM -7.6 °F - -14.8 °F 71% 29.83 in 10.0 mi Calm Calm - N/A   Clear
7:45 AM -7.6 °F - -13.0 °F 77% 29.84 in 10.0 mi Calm Calm - N/A   Clear
8:05 AM -7.6 °F - -13.0 °F 77% 29.85 in 10.0 mi Calm Calm - N/A   Clear
8:25 AM -5.8 °F -14.5 °F -11.2 °F 77% 29.86 in 10.0 mi North 3.5 mph - N/A   Clear
8:45 AM -5.8 °F -18.4 °F -13.0 °F 71% 29.86 in 10.0 mi NNE 5.8 mph - N/A   Clear
9:05 AM -4.0 °F -16.3 °F -11.2 °F 71% 29.87 in 10.0 mi NNE 5.8 mph - N/A   Clear
9:25 AM -4.0 °F -14.6 °F -11.2 °F 71% 29.87 in 10.0 mi North 4.6 mph - N/A   Clear
9:45 AM -2.2 °F -15.6 °F -11.2 °F 66% 29.88 in 10.0 mi NNW 6.9 mph - N/A   Clear
10:05 AM -0.4 °F -12.0 °F -9.4 °F 66% 29.88 in 10.0 mi NW 5.8 mph - N/A   Clear
10:25 AM -0.4 °F -15.7 °F -9.4 °F 66% 29.89 in 10.0 mi NNW 9.2 mph - N/A   Clear
10:45 AM 1.4 °F -13.5 °F -7.6 °F 66% 29.89 in 10.0 mi NW 9.2 mph - N/A   Clear
11:25 AM 1.4 °F -13.5 °F -7.6 °F 66% 29.90 in 10.0 mi NW 9.2 mph - N/A   Clear
11:45 AM 1.4 °F -13.5 °F -7.6 °F 66% 29.90 in 10.0 mi NW 9.2 mph - N/A   Clear
12:05 PM 3.2 °F -11.3 °F -5.8 °F 66% 29.90 in 10.0 mi NNW 9.2 mph 16.1 mph N/A   Clear
12:28 PM 5.0 °F -9.1 °F -4.0 °F 66% 29.89 in 10.0 mi NW 9.2 mph - N/A Snow Light Snow
12:46 PM 6.8 °F -6.9 °F -4.0 °F 61% 29.89 in 10.0 mi NW 9.2 mph - N/A   Clear
1:06 PM 6.8 °F -6.9 °F -4.0 °F 61% 29.89 in 10.0 mi WNW 9.2 mph - N/A   Clear
1:27 PM 8.6 °F -5.5 °F -4.0 °F 57% 29.88 in 10.0 mi NW 10.4 mph - N/A   Clear
1:46 PM 10.4 °F -3.3 °F -2.2 °F 57% 29.88 in 10.0 mi NW 10.4 mph - N/A   Clear
2:06 PM 10.4 °F -3.3 °F -0.4 °F 62% 29.88 in 10.0 mi WNW 10.4 mph - N/A   Clear
2:27 PM 10.4 °F -3.3 °F -0.4 °F 62% 29.89 in 10.0 mi WNW 10.4 mph - N/A   Clear
2:46 PM 12.2 °F -1.0 °F 1.4 °F 62% 29.90 in 10.0 mi NW 10.4 mph - N/A   Clear
3:06 PM 12.2 °F 0.7 °F 1.4 °F 62% 29.91 in 10.0 mi NW 8.1 mph - N/A   Clear
3:27 PM 12.2 °F 0.7 °F 1.4 °F 62% 29.90 in 10.0 mi NW 8.1 mph - N/A   Clear
3:46 PM 12.2 °F 0.7 °F 1.4 °F 62% 29.91 in 10.0 mi NW 8.1 mph - N/A   Clear
4:06 PM 12.2 °F 0.7 °F 1.4 °F 62% 29.92 in 10.0 mi NNW 8.1 mph - N/A   Clear
4:27 PM 12.2 °F 2.9 °F 1.4 °F 62% 29.93 in 10.0 mi NNW 5.8 mph - N/A   Clear
4:46 PM 12.2 °F - 1.4 °F 62% 29.93 in 10.0 mi Calm Calm - N/A   Clear
5:06 PM 12.2 °F - 1.4 °F 62% 29.93 in 10.0 mi Calm Calm - N/A   Clear
5:27 PM 12.2 °F 4.3 °F 1.4 °F 62% 29.93 in 10.0 mi NNW 4.6 mph - N/A   Clear
5:46 PM 10.4 °F 2.2 °F 1.4 °F 67% 29.94 in 10.0 mi NW 4.6 mph - N/A   Clear
6:06 PM 5.0 °F - -2.2 °F 72% 29.93 in 10.0 mi Calm Calm - N/A   Clear
6:27 PM -0.4 °F - -5.8 °F 78% 29.93 in 10.0 mi Calm Calm - N/A   Clear
6:46 PM -0.4 °F - -5.8 °F 78% 29.94 in 10.0 mi Calm Calm - N/A   Clear
7:06 PM -2.2 °F - -5.8 °F 85% 29.94 in 10.0 mi Calm Calm - N/A   Clear
7:27 PM -5.8 °F - -9.4 °F 84% 29.93 in 10.0 mi Calm Calm - N/A   Clear
7:46 PM -5.8 °F - -9.4 °F 84% 29.93 in 10.0 mi Calm Calm - N/A   Clear
8:06 PM -5.8 °F - -9.4 °F 84% 29.93 in 10.0 mi Calm Calm - N/A   Clear
8:27 PM -7.6 °F - -13.0 °F 77% 29.92 in 10.0 mi Calm Calm - N/A   Clear
8:46 PM -9.4 °F - -14.8 °F 77% 29.92 in 10.0 mi Calm Calm - N/A   Clear
9:06 PM -9.4 °F - -14.8 °F 77% 29.92 in 10.0 mi Calm Calm - N/A   Clear
9:27 PM -11.2 °F - -16.6 °F 77% 29.92 in 10.0 mi Calm Calm - N/A   Clear
9:46 PM -9.4 °F - -16.6 °F 71% 29.93 in 10.0 mi Calm Calm - N/A   Clear
10:06 PM -9.4 °F - -16.6 °F 71% 29.92 in 10.0 mi Calm Calm - N/A   Clear
10:26 PM -14.8 °F - -20.2 °F 77% 29.92 in 10.0 mi Calm Calm - N/A   Mostly Cloudy
10:46 PM -9.4 °F - -14.8 °F 77% 29.92 in 10.0 mi Calm Calm - N/A   Mostly Cloudy
11:07 PM -9.4 °F - -16.6 °F 71% 29.92 in 10.0 mi Calm Calm - N/A   Scattered Clouds
11:26 PM -9.4 °F - -14.8 °F 77% 29.93 in 10.0 mi Calm Calm - N/A   Scattered Clouds
11:47 PM -9.4 °F - -14.8 °F 77% 29.92 in 10.0 mi Calm Calm - N/A   Mostly Cloudy